Погода в Летисии

Колумбия     4°12′31″S   69°56′17″W
темп.,
°C
ветер,
м/с
пор.,
м/с
влажн.,
%
обл.,
%
осадки,
мм/ч
давл.,
гПа
погр.,
м
22 января, пт
пт2201:00+22св1199100 2.3 101030
04:00+22св1199100 0.8 101042
07:00+23св1398100 1.1 1011183
10:00+29всв236894 0.6 1012829
13:00+28св248996 3.6 1009939
16:00+26всв248769 2.6 1007352
19:00+23в019267 2.8 100923
22:00+23ссв019499 0.0 101123
23 января, сб
сб2301:00+22вюв0099100 4.8 101024
04:00+22з12100100 3.2 1009109
07:00+23зсз1499100 4.1 1012227
10:00+23ссз149899 4.8 1013220
13:00+23ссз149798 11.0 1010305
16:00+25зсз368857 1.1 1008634
19:00+22сз149979 2.0 1010173
22:00+22зюз2599100 5.7 1012252
24 января, вс
вс2401:00+21з13100100 9.4 1011177
04:00+21юз01100100 0.6 100937
07:00+21юз11100100 8.1 101275
10:00+22ю01100100 11.9 101386
13:00+23ссз0198100 15.1 1011204
16:00+24ююз1196100 0.4 1008281
19:00+22всв0099100 0.4 100923
22:00+22сз1199100 0.0 101153
25 января, пн
пн2501:00+22з01100100 0.0 101024
04:00+21с0199100 0.0 100923
07:00+22всв0198100 0.0 101240
10:00+22всв1397100 0.2 1013202
13:00+23в1394100 0.3 1010325
16:00+24всв1392100 0.0 1006337
19:00+22св119861 0.0 100723
22:00+21св119991 0.0 101024
26 января, вт
вт2601:00+21сз009994 0.0 100923
04:00+21вюв0096100 0.0 100923
07:00+23в0191100 0.0 1011108
10:00+30всв126493 0.0 1012971
13:00+28вюв128196 0.9 1009745
16:00+29ссв1274100 0.6 1005615
19:00+24ссз119594 1.1 100824
22:00+23с119823 0.6 101023